Regional Weather Roundup
Issued by NWS State College, PA

Home | Current Version | Previous Version | Text Only | Print | Product List | Glossary Off
Versions: 1 2 3 4 5 6 7 8 9 10 11 12 13 14 15 16 17 18 19 20 21 22 23 24 25 26 27 28 29 30 31 32 33 34 35 36 37 38 39 40 41 42 43 44 45 46 47 48 49 50

000
ASUS41 KCTP 292310
RWRCTP

REGIONAL WEATHER ROUNDUP
NATIONAL WEATHER SERVICE STATE COLLEGE PA
700 PM EDT MON SEP 29 2014

Note: "fair" indicates few or no clouds below 12,000 feet with no
significant weather and/or obstructions to visibility.

* = STATION THAT DOES NOT REPORT PRECIPITATION /E.G. RAIN...SNOW...ETC/
    THUNDER OR FOG.

PAZ002>004-007>009-013>016-020>023-029>032-300000-
WESTERN PENNSYLVANIA

CITY           SKY/WX    TMP DP  RH WIND       PRES   REMARKS
ERIE           CLEAR     69  53  56 SW3       29.93S
MEADVILLE      CLEAR     66  55  67 CALM      29.94F
FRANKLIN*      CLEAR     66  54  63 CALM      29.95F
NEW CASTLE       N/A     71  56  59 CALM      29.93S
BEAVER COUNTY  CLEAR     72  55  56 CALM      29.93S
BUTLER*        CLEAR     70  55  60 N3        29.95R
PITTSBURGH INT MOCLDY    75  56  51 S5        29.92S
PITTSBURGH     CLEAR     73  52  47 NW3       29.92S
INDIANA*       CLEAR     70  59  68 CALM      29.97F
LATROBE        PTCLDY    73  61  64 VRB5      29.93F
WASHINGTON CO* MOCLDY    66  59  77 CALM      29.94S
$$

PAZ004>006-010>012-017>019-024>028-033>037-041-042-045-046-049>053-300000-
CENTRAL PENNSYLVANIA

CITY           SKY/WX    TMP DP  RH WIND       PRES   REMARKS
BRADFORD       CLEAR     65  51  60 CALM      29.95F
DUBOIS         CLEAR     69  52  54 CALM      29.94S
CLEARFIELD     CLEAR     67  57  70 N3        29.94S
JOHNSTOWN      PTCLDY    66  51  58 CALM      29.97F
ALTOONA        PTCLDY    68  57  68 SE3       29.95F
STATE COLLEGE  PTCLDY    68  57  68 CALM      29.94S
WILLIAMSPORT   MOCLDY    72  58  61 VRB3      29.89F
SELINSGROVE    CLOUDY    69  62  78 CALM      29.92S
FT INDIANTOWN  CLOUDY    72  64  75 W2        29.93R
CAPITAL CITY   CLOUDY    72  59  63 CALM      29.92S
HARRISBURG     CLOUDY    70  61  73 S3        29.91S
YORK           CLOUDY    70  62  76 S3        29.93S
$$

PAZ038>040-043-044-047-048-054-055-060>062-067>071-300000-
EASTERN PENNSYLVANIA

CITY           SKY/WX    TMP DP  RH WIND       PRES   REMARKS
SCRANTON       CLOUDY    68  57  68 CALM      29.92F
MOUNT POCONO   CLOUDY    64  57  78 CALM      29.96F
ALLENTOWN      CLOUDY    71  58  63 CALM      29.91F
QUAKERTOWN*    CLOUDY    68  61  77 CALM      29.94R
READING        CLOUDY    71  59  65 CALM      29.91S
LANCASTER      CLOUDY    70  61  73 S3        29.93R
COATESVILLE    CLOUDY    66  63  88 CALM      29.96R
POTTSTOWN      CLOUDY    69  63  81 S6        29.95R
BLUE BELL      CLOUDY    68  63  83 CALM      29.93S
DOYLESTOWN     CLOUDY    67  62  84 S5        29.93R
WILLOW GROVE   NOT AVBL
NORTH PHILA    CLOUDY    72  61  68 SW5       29.94S
PHILADELPHIA   LGT RAIN  70  65  84 W10       29.94S
$$


USA.gov is the U.S. government's official web portal to all federal, state and local government web resources and services.